,,Stat6,,Stat2,,Stat8,,Stat9,,Stat10,,Wind1,,Wind1,
time,status,PA1M_AVG,status,PR1M_SUM,status,RH1M_AVG,status,SR1M_AVG,status,TA1M_AVG,status,W1dAve1m,status,W1sAve1m,
2005-10-06, 00:00:00,VALID,919.165,VALID,0,VALID,100,VALID,-0.0849042,VALID,19.4058,VALID,84,VALID,0.553943,
2005-10-06, 00:01:00,VALID,919.169,VALID,0,VALID,100,VALID,-0.0849042,VALID,19.4056,VALID,86,VALID,0.499306,
2005-10-06, 00:02:01,VALID,919.174,VALID,0,VALID,100,VALID,-0.0169808,VALID,19.3984,VALID,98,VALID,0.639137,
2005-10-06, 00:03:00,VALID,918.763,VALID,0,VALID,100,VALID,0.0339617,VALID,19.3912,VALID,62,VALID,0.721657,
2005-10-06, 00:04:01,VALID,919.192,VALID,0,VALID,100,VALID,0,VALID,19.4111,VALID,54,VALID,0.57867,
2005-10-06, 00:05:00,VALID,919.189,VALID,0,VALID,100,VALID,0.0169808,VALID,19.3912,VALID,55,VALID,0.957031,
2005-10-06, 00:06:00,VALID,919.195,VALID,0,VALID,100,VALID,0.0169808,VALID,19.3755,VALID,59,VALID,0.921697,
2005-10-06, 00:07:01,VALID,919.189,VALID,0,VALID,100,VALID,0.0849042,VALID,19.3624,VALID,60,VALID,0.704985,
2005-10-06, 00:08:00,VALID,919.169,VALID,0,VALID,100,VALID,0.0509425,VALID,19.3502,VALID,71,VALID,0.62407,
2005-10-06, 00:09:01,VALID,919.174,VALID,0,VALID,100,VALID,0.0169808,VALID,19.3172,VALID,75,VALID,0.496838,
2005-10-06, 00:10:00,VALID,919.172,VALID,0,VALID,100,VALID,0.0509425,VALID,19.3077,VALID,90,VALID,0.488281,
2005-10-06, 00:11:00,VALID,919.192,VALID,0,VALID,100,VALID,0,VALID,19.2849,VALID,101,VALID,0.734549,
2005-10-06, 00:12:00,VALID,919.211,VALID,0,VALID,100,VALID,0.0339617,VALID,19.2653,VALID,103,VALID,0.755335,
2005-10-06, 00:13:00,VALID,919.229,VALID,0,VALID,100,VALID,0.0339617,VALID,19.2623,VALID,101,VALID,0.879278,
2005-10-06, 00:14:01,VALID,919.245,VALID,0,VALID,100,VALID,0.0169808,VALID,19.2593,VALID,108,VALID,0.913477,
2005-10-06, 00:15:00,VALID,919.246,VALID,0,VALID,100,VALID,0.0509425,VALID,19.2526,VALID,109,VALID,0.738758,
2005-10-06, 00:16:00,VALID,919.249,VALID,0,VALID,100,VALID,0.0509425,VALID,19.2623,VALID,112,VALID,0.583079,
2005-10-06, 00:17:01,VALID,919.225,VALID,0,VALID,100,VALID,0.0169808,VALID,19.2461,VALID,115,VALID,0.517912,
2005-10-06, 00:18:00,VALID,919.21,VALID,0,VALID,100,VALID,0.0169808,VALID,19.2494,VALID,124,VALID,0.242914,
2005-10-06, 00:19:00,VALID,919.187,VALID,0,VALID,100,VALID,0,VALID,19.2392,VALID,127,VALID,0.18268,
2005-10-06, 00:20:01,VALID,919.146,VALID,0,VALID,100,VALID,0.0339617,VALID,19.2431,VALID,112,VALID,0.438194,
2005-10-06, 00:21:00,VALID,919.14,VALID,0,VALID,100,VALID,0,VALID,19.2235,VALID,99,VALID,0.747255,
2005-10-06, 00:22:01,VALID,919.122,VALID,0,VALID,100,VALID,0,VALID,19.2275,VALID,95,VALID,0.577363,
2005-10-06, 00:23:00,VALID,919.108,VALID,0,VALID,100,VALID,0,VALID,19.2307,VALID,95,VALID,0.620508,
2005-10-06, 00:24:00,VALID,919.078,VALID,0,VALID,100,VALID,0,VALID,19.2111,VALID,94,VALID,0.511896,
2005-10-06, 00:25:00,VALID,919.059,VALID,0,VALID,100,VALID,0,VALID,19.2143,VALID,107,VALID,0.562863,
2005-10-06, 00:26:00,VALID,919.053,VALID,0,VALID,100,VALID,0,VALID,19.2106,VALID,88,VALID,0.485102,
2005-10-06, 00:27:01,VALID,919.031,VALID,0,VALID,100,VALID,0,VALID,19.2079,VALID,77,VALID,0.555469,
2005-10-06, 00:28:00,VALID,919.021,VALID,0,VALID,100,VALID,0,VALID,19.2109,VALID,52,VALID,0.704459,
2005-10-06, 00:29:00,VALID,918.983,VALID,0,VALID,100,VALID,0.0169808,VALID,19.2074,VALID,57,VALID,0.347301,
2005-10-06, 00:30:00,VALID,918.953,VALID,0,VALID,100,VALID,0.0169808,VALID,19.1947,VALID,57,VALID,0.112995,
2005-10-06, 00:31:00,VALID,918.924,VALID,0,VALID,100,VALID,0.0169808,VALID,19.1917,VALID,57,VALID,0.0602134,
2005-10-06, 00:32:01,VALID,918.903,VALID,0,VALID,100,VALID,-0.0509425,VALID,19.1763,VALID,57,VALID,0.0425967,
2005-10-06, 00:33:00,VALID,918.864,VALID,0,VALID,100,VALID,-0.0849042,VALID,19.1899,VALID,57,VALID,0,
2005-10-06, 00:34:01,VALID,918.853,VALID,0,VALID,100,VALID,-0.0849042,VALID,19.1867,VALID,57,VALID,0,
2005-10-06, 00:35:00,VALID,918.832,VALID,0,VALID,100,VALID,-0.101885,VALID,19.1803,VALID,57,VALID,0,
2005-10-06, 00:36:00,VALID,918.801,VALID,0,VALID,100,VALID,-0.0849042,VALID,19.1569,VALID,57,VALID,0.009375,
2005-10-06, 00:37:00,VALID,918.812,VALID,0,VALID,100,VALID,-0.0679233,VALID,19.147,VALID,57,VALID,0.229833,
2005-10-06, 00:38:01,VALID,918.804,VALID,0,VALID,100,VALID,-0.0849042,VALID,19.1445,VALID,57,VALID,0.126803,
2005-10-06, 00:39:01,VALID,918.775,VALID,0,VALID,100,VALID,-0.101885,VALID,19.1514,VALID,57,VALID,0.0106534,
2005-10-06, 00:40:00,VALID,918.779,VALID,0,VALID,100,VALID,-0.101885,VALID,19.1614,VALID,57,VALID,0.101372,
2005-10-06, 00:41:01,VALID,918.769,VALID,0,VALID,100,VALID,-0.0849042,VALID,19.1477,VALID,57,VALID,0.209604,
2005-10-06, 00:42:00,VALID,918.753,VALID,0,VALID,100,VALID,-0.101885,VALID,19.1482,VALID,57,VALID,0.121189,
2005-10-06, 00:43:01,VALID,918.745,VALID,0,VALID,100,VALID,-0.0849042,VALID,19.1321,VALID,57,VALID,0.396984,
2005-10-06, 00:44:01,VALID,918.729,VALID,0,VALID,100,VALID,-0.0849042,VALID,19.1256,VALID,57,VALID,0.357558,
2005-10-06, 00:45:01,VALID,918.715,VALID,0,VALID,100,VALID,-0.101885,VALID,19.1124,VALID,57,VALID,0.373728,
2005-10-06, 00:46:01,VALID,918.704,VALID,0,VALID,100,VALID,-0.0849042,VALID,19.1028,VALID,57,VALID,0.182528,
2005-10-06, 00:47:00,VALID,918.695,VALID,0,VALID,100,VALID,-0.0339617,VALID,19.0819,VALID,57,VALID,0.0706759,
2005-10-06, 00:48:01,VALID,918.69,VALID,0,VALID,100,VALID,-0.0169808,VALID,19.0889,VALID,57,VALID,0,
2005-10-06, 00:49:00,VALID,918.675,VALID,0,VALID,100,VALID,-0.0169808,VALID,19.0757,VALID,57,VALID,0,
2005-10-06, 00:50:01,VALID,918.667,VALID,0,VALID,100,VALID,-0.0169808,VALID,19.0596,VALID,57,VALID,0.0494186,
2005-10-06, 00:51:01,VALID,918.653,VALID,0,VALID,100,VALID,0,VALID,19.0467,VALID,57,VALID,0.164807,
2005-10-06, 00:52:01,VALID,918.633,VALID,0,VALID,100,VALID,0,VALID,19.0496,VALID,57,VALID,0.103849,
2005-10-06, 00:53:00,VALID,918.608,VALID,0,VALID,100,VALID,0,VALID,19.0429,VALID,57,VALID,0.0426829,
2005-10-06, 00:54:01,VALID,918.585,VALID,0,VALID,100,VALID,0.0169808,VALID,19.0363,VALID,57,VALID,0.0138081,
2005-10-06, 00:55:01,VALID,918.567,VALID,0,VALID,100,VALID,0,VALID,19.0432,VALID,57,VALID,0.0847222,
2005-10-06, 00:56:00,VALID,918.524,VALID,0,VALID,100,VALID,0,VALID,19.0365,VALID,57,VALID,0.299107,
2005-10-06, 00:57:01,VALID,918.496,VALID,0,VALID,100,VALID,0,VALID,19.0437,VALID,57,VALID,0.230945,
2005-10-06, 00:58:00,VALID,918.461,VALID,0,VALID,100,VALID,0,VALID,19.03,VALID,57,VALID,0.26835,
2005-10-06, 00:59:00,VALID,918.426,VALID,0,VALID,100,VALID,0,VALID,19.0402,VALID,57,VALID,0.0898438,
2005-10-06, 01:00:00,VALID,918.401,VALID,0,VALID,100,VALID,0,VALID,19.0469,VALID,103,VALID,0.574396,
2005-10-06, 01:01:01,VALID,918.363,VALID,0,VALID,100,VALID,0,VALID,19.0395,VALID,131,VALID,0.765811,
2005-10-06, 01:02:01,VALID,918.339,VALID,0,VALID,100,VALID,0.0339617,VALID,19.0623,VALID,145,VALID,0.514382,
2005-10-06, 01:03:01,VALID,918.307,VALID,0,VALID,100,VALID,0.0169808,VALID,19.0725,VALID,168,VALID,0.677693,
2005-10-06, 01:04:00,VALID,918.288,VALID,0,VALID,100,VALID,0,VALID,19.0725,VALID,172,VALID,0.402616,
2005-10-06, 01:05:01,VALID,918.261,VALID,0,VALID,100,VALID,-0.0169808,VALID,19.066,VALID,160,VALID,0.365945,
2005-10-06, 01:06:01,VALID,918.24,VALID,0,VALID,100,VALID,0,VALID,19.0725,VALID,154,VALID,0.674414,
2005-10-06, 01:07:01,VALID,918.223,VALID,0,VALID,100,VALID,0,VALID,19.0695,VALID,147,VALID,0.56468,
2005-10-06, 01:08:01,VALID,918.201,VALID,0,VALID,100,VALID,0,VALID,19.0626,VALID,134,VALID,0.944602,
2005-10-06, 01:09:01,VALID,918.195,VALID,0,VALID,100,VALID,0.0339617,VALID,19.0593,VALID,137,VALID,1.21962,
2005-10-06, 01:10:00,VALID,918.171,VALID,0,VALID,100,VALID,0.0169808,VALID,19.0596,VALID,131,VALID,1.03906,
2005-10-06, 01:11:01,VALID,918.158,VALID,0,VALID,100,VALID,0,VALID,19.0464,VALID,129,VALID,0.89027,
2005-10-06, 01:12:01,VALID,918.133,VALID,0,VALID,100,VALID,0,VALID,19.0367,VALID,139,VALID,1.52326,
2005-10-06, 01:13:00,VALID,918.124,VALID,0,VALID,100,VALID,0.0509425,VALID,19.0171,VALID,134,VALID,1.38663,
2005-10-06, 01:14:01,VALID,918.101,VALID,0,VALID,100,VALID,0.0169808,VALID,19.0144,VALID,132,VALID,1.26617,
2005-10-06, 01:15:01,VALID,918.086,VALID,0,VALID,100,VALID,0,VALID,19.0047,VALID,134,VALID,1.05527,
2005-10-06, 01:16:01,VALID,918.065,VALID,0,VALID,100,VALID,0,VALID,19.0014,VALID,147,VALID,0.80506,
2005-10-06, 01:17:00,VALID,918.058,VALID,0,VALID,100,VALID,-0.0339617,VALID,18.9897,VALID,132,VALID,1.04615,
2005-10-06, 01:18:01,VALID,918.043,VALID,0,VALID,100,VALID,-0.0849042,VALID,18.9934,VALID,126,VALID,1.12619,
2005-10-06, 01:19:01,VALID,918.031,VALID,0,VALID,100,VALID,-0.0849042,VALID,18.9934,VALID,132,VALID,1.19869,
2005-10-06, 01:20:01,VALID,918.029,VALID,0,VALID,100,VALID,-0.101885,VALID,18.9733,VALID,150,VALID,1.11788,
2005-10-06, 01:21:01,VALID,918.042,VALID,0,VALID,100,VALID,-0.0849042,VALID,18.9835,VALID,127,VALID,0.695126,
2005-10-06, 01:22:01,VALID,918.04,VALID,0,VALID,100,VALID,-0.101885,VALID,18.9835,VALID,111,VALID,0.403773,
2005-10-06, 01:23:01,VALID,918.045,VALID,0,VALID,100,VALID,-0.0849042,VALID,18.9671,VALID,94,VALID,0.956771,
2005-10-06, 01:24:01,VALID,918.044,VALID,0,VALID,100,VALID,-0.0849042,VALID,18.9639,VALID,99,VALID,1.04249,
2005-10-06, 01:25:01,VALID,918.042,VALID,0,VALID,100,VALID,-0.101885,VALID,18.9609,VALID,101,VALID,1.03725,
2005-10-06, 01:26:01,VALID,918.044,VALID,0,VALID,100,VALID,-0.101885,VALID,18.951,VALID,94,VALID,1.04935,
2005-10-06, 01:27:01,VALID,918.054,VALID,0,VALID,100,VALID,-0.101885,VALID,18.948,VALID,103,VALID,1.10211,
2005-10-06, 01:28:01,VALID,918.051,VALID,0,VALID,100,VALID,-0.0849042,VALID,18.9413,VALID,87,VALID,0.803943,
2005-10-06, 01:29:01,VALID,918.07,VALID,0,VALID,100,VALID,-0.101885,VALID,18.9448,VALID,86,VALID,1.07475,
2005-10-06, 01:30:01,VALID,918.076,VALID,0,VALID,100,VALID,-0.101885,VALID,18.9355,VALID,91,VALID,0.893229,
2005-10-06, 01:31:01,VALID,918.073,VALID,0,VALID,100,VALID,-0.135847,VALID,18.9192,VALID,106,VALID,1.1032,
2005-10-06, 01:32:01,VALID,918.074,VALID,0.2,VALID,100,VALID,-0.0169808,VALID,18.918,VALID,105,VALID,1.37282,
2005-10-06, 01:33:01,VALID,918.061,VALID,0,VALID,100,VALID,0,VALID,18.9277,VALID,107,VALID,1.17257,
2005-10-06, 01:34:01,VALID,918.047,VALID,0,VALID,100,VALID,0,VALID,18.9272,VALID,105,VALID,1.3552,
2005-10-06, 01:35:01,VALID,918.048,VALID,0,VALID,100,VALID,0,VALID,18.947,VALID,122,VALID,1.15732,
2005-10-06, 01:36:01,VALID,918.038,VALID,0,VALID,100,VALID,0,VALID,18.9533,VALID,121,VALID,1.09805,
2005-10-06, 01:37:01,VALID,918.014,VALID,0,VALID,100,VALID,-0.0169808,VALID,18.9468,VALID,124,VALID,1.31632,
2005-10-06, 01:38:01,VALID,918.014,VALID,0,VALID,100,VALID,-0.0169808,VALID,18.9498,VALID,135,VALID,0.872768,
2005-10-06, 01:39:00,VALID,917.992,VALID,0,VALID,100,VALID,0,VALID,18.9369,VALID,128,VALID,1.48978,
2005-10-06, 01:40:00,VALID,917.987,VALID,0,VALID,100,VALID,0,VALID,18.95,VALID,129,VALID,1.30646,
2005-10-06, 01:41:00,VALID,917.975,VALID,0,VALID,100,VALID,0.0169808,VALID,18.9436,VALID,133,VALID,1.73476,
2005-10-06, 01:42:00,VALID,917.965,VALID,0,VALID,100,VALID,0.0169808,VALID,18.9429,VALID,129,VALID,1.62809,
2005-10-06, 01:43:00,VALID,917.942,VALID,0,VALID,100,VALID,0,VALID,18.9334,VALID,137,VALID,1.61374,
2005-10-06, 01:44:00,VALID,917.937,VALID,0,VALID,100,VALID,0,VALID,18.9299,VALID,127,VALID,1.46406,
2005-10-06, 01:45:00,VALID,917.923,VALID,0,VALID,100,VALID,0.0339617,VALID,18.9304,VALID,126,VALID,1.47431,
2005-10-06, 01:46:00,VALID,917.915,VALID,0,VALID,100,VALID,0.0169808,VALID,18.9205,VALID,127,VALID,1.57774,
2005-10-06, 01:47:00,VALID,917.905,VALID,0,VALID,100,VALID,-0.0679233,VALID,18.9224,VALID,138,VALID,1.62686,
2005-10-06, 01:48:00,VALID,917.91,VALID,0,VALID,100,VALID,-0.0339617,VALID,18.9088,VALID,129,VALID,1.37462,
2005-10-06, 01:49:00,VALID,917.913,VALID,0,VALID,100,VALID,-0.101885,VALID,18.9125,VALID,124,VALID,1.61049,
2005-10-06, 01:50:00,VALID,917.913,VALID,0,VALID,100,VALID,-0.0849042,VALID,18.9157,VALID,130,VALID,1.29929,
2005-10-06, 01:51:00,VALID,917.921,VALID,0,VALID,100,VALID,-0.0849042,VALID,18.9127,VALID,124,VALID,1.45675,
2005-10-06, 01:52:00,VALID,917.916,VALID,0,VALID,100,VALID,-0.0849042,VALID,18.9129,VALID,120,VALID,1.43099,
2005-10-06, 01:53:00,VALID,917.906,VALID,0,VALID,100,VALID,-0.0679233,VALID,18.9095,VALID,128,VALID,1.34952,
2005-10-06, 01:54:00,VALID,917.909,VALID,0,VALID,100,VALID,-0.0849042,VALID,18.8896,VALID,125,VALID,1.71548,
2005-10-06, 01:55:00,VALID,917.906,VALID,0,VALID,100,VALID,-0.0339617,VALID,18.8866,VALID,128,VALID,1.4066,
2005-10-06, 01:56:00,VALID,917.906,VALID,0,VALID,100,VALID,-0.0849042,VALID,18.8933,VALID,137,VALID,1.70145,
2005-10-06, 01:57:00,VALID,917.903,VALID,0.2,VALID,100,VALID,-0.101885,VALID,18.8938,VALID,136,VALID,1.85728,
2005-10-06, 01:58:00,VALID,917.888,VALID,0,VALID,100,VALID,-0.101885,VALID,18.8839,VALID,136,VALID,1.80432,
2005-10-06, 01:59:00,VALID,917.889,VALID,0,VALID,100,VALID,-0.101885,VALID,18.8839,VALID,130,VALID,1.98121,
2005-10-06, 02:00:00,VALID,917.88,VALID,0,VALID,100,VALID,-0.101885,VALID,18.8807,VALID,118,VALID,1.39126,
2005-10-06, 02:01:00,VALID,917.852,VALID,0,VALID,100,VALID,-0.0849042,VALID,18.874,VALID,129,VALID,1.41461,
2005-10-06, 02:02:00,VALID,917.818,VALID,0,VALID,100,VALID,0.0169808,VALID,18.8795,VALID,131,VALID,1.97711,
2005-10-06, 02:03:00,VALID,917.783,VALID,0.2,VALID,100,VALID,0.0339617,VALID,18.8596,VALID,108,VALID,1.95108,
2005-10-06, 02:04:00,VALID,917.75,VALID,0,VALID,100,VALID,0.0339617,VALID,18.8725,VALID,125,VALID,1.04074,
2005-10-06, 02:05:00,VALID,917.717,VALID,0,VALID,100,VALID,0.0339617,VALID,18.8827,VALID,130,VALID,1.40838,
2005-10-06, 02:06:00,VALID,917.679,VALID,0,VALID,100,VALID,0,VALID,18.8758,VALID,126,VALID,1.51979,
2005-10-06, 02:07:00,VALID,917.646,VALID,0,VALID,100,VALID,0,VALID,18.876,VALID,142,VALID,1.51944,
2005-10-06, 02:08:00,VALID,917.604,VALID,0.2,VALID,100,VALID,0,VALID,18.9021,VALID,117,VALID,2.07982,
2005-10-06, 02:09:00,VALID,917.576,VALID,0,VALID,100,VALID,0,VALID,18.918,VALID,105,VALID,1.80078,
2005-10-06, 02:10:00,VALID,917.551,VALID,0,VALID,100,VALID,0,VALID,18.9212,VALID,102,VALID,1.56712,
2005-10-06, 02:11:00,VALID,917.545,VALID,0,VALID,100,VALID,0.0169808,VALID,18.9147,VALID,118,VALID,1.51601,
2005-10-06, 02:12:00,VALID,917.525,VALID,0.2,VALID,100,VALID,0,VALID,18.921,VALID,119,VALID,2.03597,
2005-10-06, 02:13:00,VALID,917.489,VALID,0,VALID,100,VALID,-0.0169808,VALID,18.921,VALID,124,VALID,1.53534,
2005-10-06, 02:14:00,VALID,917.475,VALID,0,VALID,100,VALID,-0.0169808,VALID,18.9249,VALID,107,VALID,1.41806,
2005-10-06, 02:15:00,VALID,917.442,VALID,0,VALID,100,VALID,-0.0169808,VALID,18.918,VALID,118,VALID,1.40262,
2005-10-06, 02:16:00,VALID,917.432,VALID,0,VALID,100,VALID,0.0169808,VALID,18.918,VALID,120,VALID,1.37028,
2005-10-06, 02:17:00,VALID,917.407,VALID,0.2,VALID,100,VALID,0,VALID,18.9274,VALID,109,VALID,2.09583,
2005-10-06, 02:18:00,VALID,917.399,VALID,0,VALID,100,VALID,0.0509425,VALID,18.96,VALID,117,VALID,1.92429,
2005-10-06, 02:19:00,VALID,917.383,VALID,0,VALID,100,VALID,0,VALID,18.9759,VALID,90,VALID,2.0253,
2005-10-06, 02:20:00,VALID,917.372,VALID,0,VALID,100,VALID,0.0169808,VALID,18.9756,VALID,105,VALID,2.05632,
2005-10-06, 02:21:00,VALID,917.355,VALID,0,VALID,100,VALID,0.0169808,VALID,19.0026,VALID,101,VALID,2.05972,
2005-10-06, 02:22:00,VALID,917.37,VALID,0,VALID,100,VALID,-0.0169808,VALID,19.0017,VALID,87,VALID,1.56719,
2005-10-06, 02:23:00,VALID,917.337,VALID,0.2,VALID,100,VALID,0,VALID,19.0019,VALID,108,VALID,2.27416,
2005-10-06, 02:24:00,VALID,917.32,VALID,0,VALID,100,VALID,0.0169808,VALID,19.0109,VALID,111,VALID,2.02687,
2005-10-06, 02:25:00,VALID,917.31,VALID,0,VALID,100,VALID,0.0169808,VALID,19.0176,VALID,127,VALID,2.09609,
2005-10-06, 02:26:00,VALID,917.304,VALID,0,VALID,100,VALID,0,VALID,19.0181,VALID,109,VALID,1.70145,
2005-10-06, 02:27:00,VALID,917.288,VALID,0,VALID,100,VALID,0.0169808,VALID,19.0211,VALID,101,VALID,1.45084,
2005-10-06, 02:28:00,VALID,917.293,VALID,0,VALID,100,VALID,0,VALID,19.0148,VALID,117,VALID,0.964844,
2005-10-06, 02:29:00,VALID,917.287,VALID,0,VALID,100,VALID,0.0339617,VALID,18.9985,VALID,119,VALID,1.09268,
2005-10-06, 02:30:00,VALID,917.291,VALID,0.2,VALID,100,VALID,0,VALID,18.9848,VALID,137,VALID,1.42726,
2005-10-06, 02:31:00,VALID,917.286,VALID,0,VALID,100,VALID,0.0169808,VALID,18.9826,VALID,136,VALID,1.14825,
2005-10-06, 02:32:00,VALID,917.291,VALID,0,VALID,100,VALID,0.0339617,VALID,18.9759,VALID,129,VALID,1.1542,
2005-10-06, 02:33:00,VALID,917.29,VALID,0,VALID,100,VALID,0.0339617,VALID,18.9595,VALID,139,VALID,1.31548,
2005-10-06, 02:34:00,VALID,917.292,VALID,0,VALID,100,VALID,0,VALID,18.9466,VALID,109,VALID,0.853924,
2005-10-06, 02:35:00,VALID,917.287,VALID,0,VALID,100,VALID,0,VALID,18.947,VALID,114,VALID,0.834223,
2005-10-06, 02:36:00,VALID,917.279,VALID,0.2,VALID,100,VALID,0,VALID,18.9339,VALID,123,VALID,0.88265,
2005-10-06, 02:37:00,VALID,917.271,VALID,0,VALID,100,VALID,0.0169808,VALID,18.9274,VALID,129,VALID,0.716388,
2005-10-06, 02:38:00,VALID,917.263,VALID,0,VALID,100,VALID,0,VALID,18.9336,VALID,117,VALID,0.955966,
2005-10-06, 02:39:00,VALID,917.261,VALID,0,VALID,100,VALID,0.0169808,VALID,18.9436,VALID,117,VALID,1.02344,
2005-10-06, 02:40:00,VALID,917.255,VALID,0,VALID,100,VALID,0,VALID,18.9401,VALID,132,VALID,1.50799,
2005-10-06, 02:41:00,VALID,917.251,VALID,0,VALID,100,VALID,0.0339617,VALID,18.953,VALID,138,VALID,1.27269,
2005-10-06, 02:42:00,VALID,917.248,VALID,0,VALID,100,VALID,0,VALID,18.96,VALID,145,VALID,1.25152,
2005-10-06, 02:43:00,VALID,917.243,VALID,0.2,VALID,100,VALID,0,VALID,18.9662,VALID,121,VALID,0.928385,
2005-10-06, 02:44:00,VALID,917.246,VALID,0,VALID,100,VALID,0,VALID,18.9766,VALID,144,VALID,1.06141,
2005-10-06, 02:45:00,VALID,917.232,VALID,0,VALID,100,VALID,0,VALID,18.9694,VALID,145,VALID,0.834121,
2005-10-06, 02:46:00,VALID,917.235,VALID,0,VALID,100,VALID,0,VALID,18.9632,VALID,129,VALID,0.882031,
2005-10-06, 02:47:00,VALID,917.238,VALID,0,VALID,100,VALID,-0.0679233,VALID,18.9706,VALID,121,VALID,0.852628,
2005-10-06, 02:48:00,VALID,917.239,VALID,0,VALID,100,VALID,-0.0679233,VALID,18.9808,VALID,117,VALID,0.438715,
2005-10-06, 02:49:00,VALID,917.245,VALID,0,VALID,100,VALID,-0.0679233,VALID,18.9639,VALID,149,VALID,1.16311,
2005-10-06, 02:50:00,VALID,917.242,VALID,0.2,VALID,100,VALID,-0.0509425,VALID,18.9708,VALID,146,VALID,1.13808,
2005-10-06, 02:51:00,VALID,917.265,VALID,0,VALID,100,VALID,-0.0509425,VALID,18.984,VALID,141,VALID,1.22856,
2005-10-06, 02:52:00,VALID,917.271,VALID,0,VALID,100,VALID,-0.101885,VALID,18.9704,VALID,154,VALID,1.54408,
2005-10-06, 02:53:00,VALID,917.282,VALID,0,VALID,100,VALID,-0.0339617,VALID,18.9833,VALID,149,VALID,1.09032,
2005-10-06, 02:54:00,VALID,917.299,VALID,0,VALID,100,VALID,-0.0509425,VALID,18.9771,VALID,130,VALID,1.38077,
2005-10-06, 02:55:00,VALID,917.325,VALID,0.2,VALID,100,VALID,-0.0339617,VALID,18.9763,VALID,132,VALID,1.08132,
2005-10-06, 02:56:00,VALID,917.321,VALID,0,VALID,100,VALID,-0.0509425,VALID,18.9863,VALID,130,VALID,0.386446,
2005-10-06, 02:57:00,VALID,917.327,VALID,0,VALID,100,VALID,-0.0339617,VALID,18.9962,VALID,132,VALID,1.15696,
2005-10-06, 02:58:00,VALID,917.33,VALID,0,VALID,100,VALID,-0.0169808,VALID,18.9964,VALID,93,VALID,0.651155,
2005-10-06, 02:59:00,VALID,917.329,VALID,0.2,VALID,100,VALID,-0.0679233,VALID,18.9833,VALID,91,VALID,0.111049,
2005-10-06, 03:00:00,VALID,917.316,VALID,0,VALID,100,VALID,-0.0509425,VALID,18.9863,VALID,99,VALID,0.147711,
2005-10-06, 03:01:00,VALID,917.31,VALID,0,VALID,100,VALID,-0.0169808,VALID,18.9932,VALID,115,VALID,0.276414,
2005-10-06, 03:02:00,VALID,917.311,VALID,0,VALID,100,VALID,-0.0169808,VALID,18.9717,VALID,84,VALID,0.672408,
2005-10-06, 03:03:00,VALID,917.309,VALID,0.2,VALID,100,VALID,0.0509425,VALID,18.9952,VALID,108,VALID,0.410247,
2005-10-06, 03:04:00,VALID,917.3,VALID,0,VALID,100,VALID,0.0169808,VALID,18.9788,VALID,107,VALID,0.565104,
2005-10-06, 03:05:00,VALID,917.308,VALID,0,VALID,100,VALID,0.0339617,VALID,18.9689,VALID,131,VALID,0.617374,
2005-10-06, 03:06:00,VALID,917.284,VALID,0,VALID,100,VALID,0.0509425,VALID,18.9788,VALID,135,VALID,0.0672637,
2005-10-06, 03:07:00,VALID,917.293,VALID,0,VALID,100,VALID,0.0679233,VALID,18.9724,VALID,135,VALID,0.00140224,
2005-10-06, 03:08:00,VALID,917.284,VALID,0,VALID,100,VALID,0.0509425,VALID,18.9729,VALID,127,VALID,0.138529,
2005-10-06, 03:09:00,VALID,917.274,VALID,0.2,VALID,100,VALID,0.0339617,VALID,18.9659,VALID,127,VALID,0.0591518,
2005-10-06, 03:10:00,VALID,917.286,VALID,0,VALID,100,VALID,0.0339617,VALID,18.9622,VALID,127,VALID,0,
2005-10-06, 03:11:00,VALID,917.29,VALID,0,VALID,100,VALID,0.0509425,VALID,18.9687,VALID,127,VALID,0,
2005-10-06, 03:12:00,VALID,917.292,VALID,0,VALID,100,VALID,0.0849042,VALID,18.9724,VALID,127,VALID,0.00090843,
2005-10-06, 03:13:00,VALID,917.298,VALID,0,VALID,100,VALID,0.0509425,VALID,18.9565,VALID,127,VALID,0,
2005-10-06, 03:14:00,VALID,917.3,VALID,0,VALID,100,VALID,0.0339617,VALID,18.9562,VALID,128,VALID,0.338341,
2005-10-06, 03:15:00,VALID,917.308,VALID,0,VALID,100,VALID,0.0169808,VALID,18.9498,VALID,135,VALID,0.432736,
2005-10-06, 03:16:00,VALID,917.307,VALID,0,VALID,100,VALID,0.0849042,VALID,18.9493,VALID,135,VALID,0.283482,
2005-10-06, 03:17:00,VALID,917.303,VALID,0.2,VALID,100,VALID,0,VALID,18.9408,VALID,135,VALID,0.0763494,
2005-10-06, 03:18:00,VALID,917.304,VALID,0,VALID,100,VALID,-0.0339617,VALID,18.9445,VALID,135,VALID,0.16997,
2005-10-06, 03:19:00,VALID,917.3,VALID,0,VALID,100,VALID,-0.0169808,VALID,18.9307,VALID,135,VALID,0.159446,
2005-10-06, 03:20:00,VALID,917.301,VALID,0,VALID,100,VALID,-0.0509425,VALID,18.9346,VALID,135,VALID,0.189453,
2005-10-06, 03:21:00,VALID,917.307,VALID,0,VALID,100,VALID,-0.0509425,VALID,18.9348,VALID,135,VALID,0.0401278,
2005-10-06, 03:22:00,VALID,917.316,VALID,0,VALID,100,VALID,-0.0509425,VALID,18.9284,VALID,135,VALID,0.00117188,
2005-10-06, 03:23:00,VALID,917.314,VALID,0,VALID,100,VALID,-0.0509425,VALID,18.9348,VALID,135,VALID,0.0247093,
2005-10-06, 03:24:00,VALID,917.291,VALID,0,VALID,100,VALID,-0.0509425,VALID,18.9152,VALID,135,VALID,0.11452,
2005-10-06, 03:25:00,VALID,917.296,VALID,0,VALID,100,VALID,-0.0679233,VALID,18.9254,VALID,136,VALID,0.63529,
2005-10-06, 03:26:00,VALID,917.297,VALID,0,VALID,100,VALID,-0.0509425,VALID,18.9222,VALID,133,VALID,1.16128,
2005-10-06, 03:27:00,VALID,917.279,VALID,0,VALID,100,VALID,-0.0679233,VALID,18.9351,VALID,139,VALID,1.19077,
2005-10-06, 03:28:00,VALID,917.274,VALID,0,VALID,100,VALID,-0.0849042,VALID,18.9318,VALID,142,VALID,0.96875,
2005-10-06, 03:29:00,VALID,917.269,VALID,0,VALID,100,VALID,-0.0509425,VALID,18.9247,VALID,147,VALID,1.00112,
2005-10-06, 03:30:00,VALID,917.27,VALID,0,VALID,100,VALID,-0.0169808,VALID,18.9346,VALID,140,VALID,0.918324,
2005-10-06, 03:31:00,VALID,917.272,VALID,0,VALID,100,VALID,-0.0339617,VALID,18.9316,VALID,124,VALID,1.21532,
2005-10-06, 03:32:00,VALID,917.288,VALID,0,VALID,100,VALID,-0.0169808,VALID,18.9413,VALID,132,VALID,1.30621,
2005-10-06, 03:33:00,VALID,917.301,VALID,0,VALID,100,VALID,-0.0509425,VALID,18.9348,VALID,131,VALID,1.35035,
2005-10-06, 03:34:00,VALID,917.307,VALID,0,VALID,100,VALID,-0.0679233,VALID,18.9314,VALID,130,VALID,1.41755,
2005-10-06, 03:35:00,VALID,917.313,VALID,0,VALID,100,VALID,-0.0339617,VALID,18.9381,VALID,104,VALID,0.647347,
2005-10-06, 03:36:00,VALID,917.324,VALID,0,VALID,100,VALID,-0.0509425,VALID,18.9351,VALID,118,VALID,0.652344,
2005-10-06, 03:37:00,VALID,917.322,VALID,0,VALID,100,VALID,-0.0849042,VALID,18.9383,VALID,111,VALID,1.23507,
2005-10-06, 03:38:00,VALID,917.311,VALID,0.2,VALID,100,VALID,-0.0679233,VALID,18.9286,VALID,105,VALID,1.13301,
2005-10-06, 03:39:00,VALID,917.31,VALID,0,VALID,100,VALID,-0.0849042,VALID,18.9383,VALID,110,VALID,1.20865,
2005-10-06, 03:40:00,VALID,917.296,VALID,0,VALID,100,VALID,-0.0849042,VALID,18.9415,VALID,118,VALID,1.35823,
2005-10-06, 03:41:00,VALID,917.292,VALID,0,VALID,100,VALID,-0.0679233,VALID,18.9413,VALID,106,VALID,0.875586,
2005-10-06, 03:42:00,VALID,917.29,VALID,0,VALID,100,VALID,-0.0339617,VALID,18.9346,VALID,125,VALID,1.61285,
2005-10-06, 03:43:00,VALID,917.307,VALID,0,VALID,100,VALID,-0.0509425,VALID,18.9475,VALID,123,VALID,1.21094,